Helicity
156 102 80 146 153 139 143 151 230 246 267 246 232 111 157 157 135 131 135 72 66 49 32 45 87 189 293 268 212 230 322 227 189 102 76 68 64 63
116 89 125 160 77 139 157 146 154 133 132 151 96 136 153 188 131 160 108 147 136 114 85 107 94 207 312 379 452 390 312 232 169 101 63 67 65 65
60 64 71 51 70 249 269 117 152 148 107 73 157 190 201 220 191 185 203 144 132 90 93 87 138 250 411 428 494 354 261 218 128 102 74 59 62 73
56 41 -42 -65 -14 -2 17 83 150 138 95 158 15 335 179 183 151 117 50 99 108 88 65 77 159 317 468 543 441 312 263 191 152 92 83 72 73 77
66 71 72 91 79 72 23 -23 11 35 61 99 109 77 85 86 122 129 108 100 147 116 101 207 342 446 625 504 291 289 233 198 146 95 74 76 84 77
73 79 81 81 77 80 93 104 66 63 72 56 77 125 118 109 124 124 103 123 120 135 135 197 233 269 234 173 271 252 245 201 115 74 67 83 104 76
83 98 100 105 86 65 72 85 94 83 76 74 88 74 64 108 127 98 93 147 132 169 202 206 243 227 209 235 245 240 207 143 95 55 66 101 97 72
90 80 76 78 116 149 139 123 98 93 111 111 114 114 117 101 107 122 149 141 156 143 251 248 299 349 368 331 262 237 149 105 61 71 67 83 74 72
55 71 88 102 87 89 128 156 154 131 122 148 150 157 158 140 134 108 140 171 119 177 196 258 371 349 368 320 297 241 195 144 63 61 90 104 78 65
14 4 -1 31 82 116 114 115 120 122 121 118 140 149 172 191 194 205 121 129 183 193 93 237 328 345 435 394 334 260 206 169 107 90 97 111 88 70
46 50 54 50 27 55 38 47 90 113 110 127 76 93 122 139 124 152 173 158 188 217 205 186 317 360 397 454 381 280 220 192 110 83 69 95 122 87
75 74 64 53 63 79 63 46 38 33 85 117 106 73 73 81 105 126 152 195 194 219 182 288 276 372 396 407 505 361 389 269 109 64 107 101 92 140
115 109 108 111 112 96 97 90 77 76 78 73 71 93 91 86 94 115 135 154 216 202 109 168 269 381 424 343 599 499 522 316 214 149 102 107 99 97
126 114 110 119 129 108 97 95 95 86 75 66 48 37 55 76 84 112 157 156 138 183 144 109 203 272 412 432 470 574 570 340 279 264 218 143 90 92
119 112 101 93 90 85 72 90 103 85 65 72 77 66 51 53 64 61 131 145 123 135 175 163 203 272 234 405 588 587 683 552 357 306 295 213 195 168
79 86 92 95 90 84 83 84 101 108 85 81 74 68 52 43 48 71 90 131 166 114 174 209 193 215 261 309 537 508 559 589 422 357 358 229 201 164
72 80 74 74 79 92 99 95 106 108 99 89 83 68 48 43 51 81 75 112 152 147 134 245 253 264 361 317 387 389 395 431 325 389 354 254 208 168
78 78 73 71 71 70 77 80 81 85 79 77 76 60 57 59 76 70 66 100 107 112 162 239 275 309 387 315 350 330 352 303 281 306 275 244 189 168
76 70 66 63 62 61 64 71 72 69 60 62 63 58 53 61 68 54 53 76 100 83 81 260 221 238 305 305 266 317 334 321 272 262 264 223 189 189
101 86 73 64 63 64 60 59 72 63 54 53 56 50 40 41 42 48 45 58 69 84 118 117 195 187 183 284 305 284 206 260 195 207 227 251 226 157
90 90 87 75 61 62 52 50 55 44 43 48 52 39 37 45 42 48 59 57 38 49 26 109 139 166 261 312 300 264 245 127 151 171 191 203 245 259
65 63 58 58 49 51 66 51 42 34 29 35 41 45 43 53 44 29 56 62 42 3 38 104 158 170 185 171 208 225 280 220 121 101 165 177 203 208
61 39 11 -6 4 32 47 17 21 27 26 33 46 49 49 42 42 38 68 42 56 -22 27 71 145 179 160 146 165 194 200 187 188 193 205 201 170 181
Wind_Speed
50 55 52 56 56 55 58 62 71 81 78 66 63 64 66 65 65 71 76 89 86 91 108 110 64 62 54 45 38 34 25 24 23 24 26 24 28 32
53 54 53 54 62 55 53 53 54 62 76 63 56 55 59 59 73 72 76 74 77 76 60 62 58 59 52 48 39 32 31 30 30 27 26 26 28 37
58 58 59 56 57 54 52 57 61 58 73 79 71 72 73 67 67 64 69 71 73 75 73 68 59 54 48 43 35 34 32 32 31 31 29 29 32 40
60 59 57 57 59 56 57 61 63 59 65 80 72 64 60 56 50 55 63 57 64 65 65 61 48 43 40 38 33 32 33 34 34 32 32 33 40 41
63 63 64 64 64 64 63 64 64 62 61 61 57 51 48 41 45 48 48 46 51 49 40 37 38 34 32 36 31 32 31 32 32 31 30 35 35 51
68 66 65 65 67 68 66 65 65 67 67 67 69 66 59 57 55 57 62 56 51 43 32 19 19 25 28 31 34 31 31 32 29 30 36 34 39 54
70 69 68 68 70 65 69 69 70 71 70 72 74 71 71 67 66 63 67 62 54 46 38 31 24 25 28 28 26 29 27 28 28 29 38 36 50 56
73 72 71 72 69 74 70 69 70 74 76 76 77 78 75 69 67 67 66 64 67 48 45 46 39 38 39 37 34 32 29 28 27 30 36 40 53 56
77 77 76 72 73 73 74 76 75 73 73 77 82 80 81 77 77 72 68 67 69 60 50 55 50 48 44 41 39 38 35 34 29 31 35 45 54 57
74 74 75 75 74 77 78 81 80 78 76 74 78 83 82 82 82 83 78 75 72 66 55 66 53 57 49 49 46 44 41 39 37 38 39 45 51 54
78 76 75 76 74 75 79 82 82 81 77 78 78 80 84 87 84 84 87 84 83 77 62 67 62 61 58 55 51 47 46 43 41 46 46 42 47 47
79 78 77 77 75 77 80 84 87 84 83 86 88 87 85 84 82 80 83 91 86 86 68 68 66 60 65 60 59 55 50 49 47 47 45 46 44 43
88 86 81 81 81 82 83 87 89 89 89 89 90 87 84 82 82 79 79 83 88 89 68 62 66 66 67 63 63 65 56 51 50 45 45 46 42 39
87 85 85 85 87 89 91 90 89 85 85 88 88 86 85 83 79 79 80 80 78 84 68 61 71 70 73 69 67 68 62 56 53 55 53 44 39 46
86 90 94 93 91 88 83 82 83 81 82 84 85 85 82 82 82 82 79 77 74 72 70 65 64 65 69 77 71 73 68 64 65 56 52 48 47 43
87 87 89 92 91 89 87 80 77 72 76 79 81 81 78 77 79 77 77 72 74 73 62 59 68 75 76 82 78 75 73 74 66 59 55 56 53 46
89 84 84 82 83 82 78 75 72 72 74 72 76 76 74 75 75 71 69 65 67 66 64 58 65 62 61 73 80 72 66 65 58 51 49 53 51 43
79 80 80 78 77 76 73 71 69 67 68 70 69 72 72 71 72 71 64 60 61 59 55 61 57 64 60 57 55 58 55 53 55 53 48 45 49 50
72 71 69 70 70 69 69 69 69 65 64 65 66 66 70 71 71 71 68 63 63 64 61 65 76 71 68 67 54 43 53 48 43 40 39 48 46 51
60 64 66 66 66 66 65 63 61 56 56 62 65 67 68 70 69 68 65 64 63 59 62 67 75 71 73 61 49 50 43 43 45 45 44 41 38 36
56 55 56 59 60 60 61 60 58 59 59 60 62 63 65 64 66 65 63 61 60 58 68 74 62 53 41 36 40 44 44 43 44 41 42 41 39 34
44 45 48 50 56 57 52 54 59 62 63 60 59 59 61 59 61 61 60 59 57 61 64 62 50 53 49 48 39 35 38 40 32 34 40 45 40 36
32 28 24 23 70 19 46 60 62 62 61 59 58 57 57 57 57 55 56 56 57 54 55 59 48 50 51 42 37 35 35 33 30 34 38 38 35 31
Wind_Direction
311 300 286 284 286 285 282 281 277 276 275 279 277 269 276 278 276 277 278 278 276 274 265 263 274 274 269 259 257 272 247 269 289 300 307 312 312 314
310 308 307 307 293 289 285 283 279 279 278 280 274 278 278 281 277 280 281 287 279 276 273 274 268 268 264 255 246 249 256 270 284 291 299 304 305 305
314 309 308 310 309 308 306 289 281 280 277 277 278 280 280 283 284 285 283 284 282 279 278 278 270 261 253 242 244 249 257 269 276 285 292 298 300 299
313 312 311 311 309 311 308 299 295 300 284 273 282 283 281 288 291 288 287 291 286 287 284 280 265 249 239 227 239 247 260 267 275 279 288 293 292 294
314 312 308 309 305 307 306 298 293 294 298 293 289 292 293 301 300 299 299 294 292 291 291 282 272 255 231 229 238 250 255 265 269 274 283 288 290 286
312 311 312 311 307 305 303 300 299 296 293 291 288 293 293 294 293 296 294 295 294 291 287 270 240 230 224 230 239 240 252 259 262 272 282 284 287 283
312 311 310 309 307 306 302 300 297 295 295 292 290 291 290 291 290 293 290 293 288 287 282 273 259 241 239 231 224 233 236 243 256 270 279 283 280 280
312 312 310 308 307 304 303 301 299 296 293 291 291 289 289 289 290 287 290 286 286 282 276 266 257 255 250 246 241 235 233 241 251 267 276 281 278 280
311 309 308 308 307 305 303 301 299 296 294 292 289 289 289 290 289 288 283 283 281 285 273 267 262 257 255 248 237 231 234 249 252 263 272 275 275 277
311 310 308 306 306 305 303 300 298 297 295 293 291 289 289 290 290 287 286 281 279 280 273 272 266 262 258 254 242 233 237 247 254 263 268 269 274 277
310 309 308 306 305 305 303 300 298 297 297 295 294 292 291 288 287 287 282 279 276 274 268 270 271 265 261 259 248 239 240 247 249 259 265 268 271 275
310 308 307 305 304 304 302 299 297 296 296 295 294 293 292 290 286 282 283 277 274 274 269 265 268 261 266 261 251 246 249 248 249 255 258 262 267 272
308 306 306 305 304 303 302 299 297 298 297 296 294 293 293 292 289 285 282 280 273 271 273 262 264 259 265 265 251 247 249 246 249 251 252 256 259 266
309 308 305 304 302 301 300 299 298 298 298 296 294 293 293 292 293 291 285 281 279 274 270 260 266 257 256 259 254 247 247 244 247 248 250 251 255 260
311 307 305 303 302 301 300 299 298 298 298 296 294 294 294 294 295 293 291 283 278 277 270 264 259 261 258 257 249 246 241 246 245 243 245 245 249 254
312 309 306 303 301 299 299 298 297 296 296 296 296 295 297 296 296 295 290 285 278 275 277 265 261 261 257 254 250 247 246 245 238 241 241 245 248 249
314 311 309 306 302 301 299 298 297 297 296 297 297 296 297 298 297 298 293 286 278 275 270 269 262 257 259 247 243 244 242 245 237 235 234 243 245 245
318 313 310 308 306 304 301 300 299 297 298 298 297 298 296 297 296 297 294 285 280 273 271 258 256 245 250 252 252 240 242 240 232 228 230 234 238 240
321 318 315 314 311 309 305 302 299 299 299 297 297 296 294 291 289 291 288 283 279 269 264 256 245 243 242 241 249 247 236 232 221 223 222 232 236 235
330 324 319 317 315 313 310 307 304 302 300 297 293 291 289 285 283 286 288 282 277 268 260 252 245 241 237 241 244 237 237 227 226 224 225 232 236 231
336 331 327 322 319 317 314 310 306 300 295 294 290 290 289 283 282 285 287 284 276 263 251 243 248 244 244 240 237 233 234 234 233 227 222 225 226 230
347 343 337 330 322 319 319 314 305 291 285 287 290 292 288 284 283 285 286 281 273 256 250 247 250 238 240 240 233 229 232 233 234 228 228 237 235 231
352 349 340 334 303 327 322 303 295 286 283 287 292 293 290 285 287 289 286 277 262 258 249 239 243 235 234 231 227 225 226 223 223 223 232 244 246 247